Location: Newark
(49.2191°N, 12.6671°E)
Time: 21:06:03
(UTC+00:00)

Transit 2A - Visible Passes

Search period start: 24 January 2020 00:00
Search period end: 03 February 2020 00:00
Orbit: 601 x 958 km, 66.7° (Epoch: 24 January)

Date Brightness Start Highest point End Pass type
(mag) Time Alt. Az. Time Alt. Az. Time Alt. Az.
24 Jan 6.7 03:48:49 45° SE 03:48:49 45° SE 03:52:25 10° SE visible
24 Jan 7.4 05:29:20 16° W 05:29:56 17° WSW 05:33:07 10° SSW visible
25 Jan 7.9 03:16:15 22° SE 03:16:15 22° SE 03:18:09 10° SE visible
25 Jan 7.2 04:56:47 23° SW 04:56:47 23° SW 05:00:04 10° SSW visible
26 Jan 7.4 04:24:19 22° SSW 04:24:19 22° SSW 04:26:37 10° S visible
26 Jan 8.1 19:01:38 10° SSW 19:02:08 13° SSW 19:02:08 13° SSW visible
27 Jan 8.1 03:51:56 15° S 03:51:56 15° S 03:52:56 10° SSE visible
27 Jan 7.0 18:27:40 10° SSW 18:29:49 27° S 18:29:49 27° S visible
28 Jan 6.2 17:53:54 10° S 17:57:26 34° SE 17:57:26 34° SE visible
28 Jan 8.3 19:37:02 10° WSW 19:37:58 15° WSW 19:37:58 15° WSW visible
29 Jan 6.7 17:20:23 10° SSE 17:23:55 24° ESE 17:24:58 22° E visible
29 Jan 7.0 19:02:34 10° WSW 19:05:31 36° W 19:05:31 36° W visible
30 Jan 7.2 16:47:14 10° SSE 16:49:59 16° ESE 16:52:26 11° ENE visible
30 Jan 5.7 18:28:15 10° SW 18:32:35 67° NW 18:32:58 63° NNW visible
31 Jan 5.4 17:54:05 10° SSW 17:58:26 85° SE 18:00:21 33° NE visible
31 Jan 8.2 19:38:59 10° W 19:40:52 17° WNW 19:40:52 17° WNW visible
01 Feb 5.6 17:20:05 10° SSW 17:24:21 57° ESE 17:27:40 16° NE visible
01 Feb 7.4 19:04:12 10° W 19:07:49 25° NW 19:08:11 24° NNW visible
02 Feb 6.1 16:46:16 10° S 16:50:19 38° ESE 16:54:22 10° NE visible
02 Feb 7.0 18:29:34 10° WSW 18:33:30 32° NW 18:35:24 23° N visible
